Date String (YYYY-MM-DD hh:mm:ss) UTC,Instrument flags,Ambient pressure (hPa),Sample flow (lpm),Bypass flow (lpm),Sample temperature (°C),Ambient temperature (°C),ASC tube jacket temperature (°C),LED temperature (°C),Box temperature (°C),Sample RH (%),Span deviation,Mass concentration (μg/m³),Mass concentration (μg/m³),Mass concentration (μg/m³)
DateTimeUTC,F1_M11,P_M11,Q1_M11,Q2_M11,T1_M11,T2_M11,T3_M11,T4_M11,T5_M11,U1_M11,ZSPAN_M11,X0_M11,X2_M11,X1_M11
2021-08-28 22:00:00,,0826.7,5.00,0.00,29.0,28.1,00.0,38.0,31.0,25.8,0002.5,0028.68,0019.37,0017.66
2021-08-28 22:01:00,,0826.7,5.01,0.00,29.0,27.0,00.0,38.0,30.7,25.7,0002.4,0028.40,0019.32,0017.61
2021-08-28 22:02:00,,0826.7,5.01,0.00,28.9,25.6,00.0,37.9,30.3,26.1,0002.4,0028.17,0019.29,0017.60
2021-08-28 22:03:00,,0826.7,5.00,0.00,28.8,25.6,00.0,37.9,30.2,26.4,0002.6,0028.30,0019.28,0017.60
2021-08-28 22:04:00,,0826.7,5.00,0.00,28.7,26.1,00.0,37.9,30.3,26.1,0002.5,0029.55,0019.33,0017.62
2021-08-28 22:05:00,,0826.7,5.00,0.00,28.8,26.6,00.0,37.9,30.5,26.2,0002.2,0030.37,0019.37,0017.64
2021-08-28 22:06:00,,0826.7,4.99,0.00,28.8,27.0,00.0,37.9,30.6,26.2,0002.0,0031.11,0019.48,0017.69
2021-08-28 22:07:00,,0826.7,4.99,0.00,28.9,27.4,00.0,37.9,30.7,26.0,0002.0,0032.22,0019.60,0017.79
2021-08-28 22:08:00,,0826.8,5.01,0.00,28.9,27.8,00.0,37.9,30.9,25.5,0002.0,0032.61,0019.69,0017.90
2021-08-28 22:09:00,,0826.7,5.00,0.00,29.0,28.1,00.0,37.9,31.0,25.5,0002.0,0032.90,0019.77,0018.03
2021-08-28 22:10:00,,0826.7,4.99,0.00,29.1,27.9,00.0,38.0,30.9,25.3,0002.2,0033.10,0019.89,0018.13
2021-08-28 22:11:00,,0826.7,5.00,0.00,29.0,26.4,00.0,37.9,30.5,25.8,0002.3,0033.39,0020.01,0018.25
2021-08-28 22:12:00,,0826.7,4.99,0.00,28.8,25.6,00.0,37.9,30.3,25.5,0002.3,0033.93,0020.08,0018.34
2021-08-28 22:13:00,,0826.7,5.00,0.00,28.8,25.9,00.0,37.9,30.4,25.6,0002.3,0034.40,0020.26,0018.42
2021-08-28 22:14:00,,0826.7,5.01,0.00,28.8,26.4,00.0,37.9,30.4,25.3,0002.0,0033.95,0020.33,0018.46
2021-08-28 22:15:00,,0826.7,4.99,0.00,28.8,26.8,00.0,37.9,30.6,25.6,0001.9,0033.64,0020.39,0018.49
2021-08-28 22:16:00,,0826.7,5.01,0.00,28.9,27.3,00.0,37.9,30.7,25.2,0001.9,0032.58,0020.30,0018.49
2021-08-28 22:17:00,,0826.8,5.00,0.00,28.9,27.6,00.0,37.9,30.8,25.0,0002.0,0031.78,0020.21,0018.48
2021-08-28 22:18:00,,0826.8,4.99,0.00,29.0,28.0,00.0,37.9,30.9,24.8,0002.0,0031.58,0020.15,0018.44
2021-08-28 22:19:00,,0826.8,5.00,0.00,29.1,28.2,00.0,37.9,31.0,24.5,0001.9,0032.53,0020.01,0018.34
2021-08-28 22:20:00,,0827.1,5.00,0.00,29.1,28.2,00.0,38.0,31.1,24.1,0001.8,0032.96,0019.86,0018.23
2021-08-28 22:21:00,,0827.2,5.00,0.00,29.1,26.7,00.0,38.0,30.7,24.2,0001.6,0033.12,0019.65,0018.11
2021-08-28 22:22:00,,0826.8,4.99,0.00,28.9,25.6,00.0,38.0,30.4,24.5,0001.4,0033.10,0019.52,0018.02
2021-08-28 22:23:00,,0826.9,5.00,0.00,28.8,25.8,00.0,38.0,30.4,24.9,0001.5,0032.03,0019.41,0017.97
2021-08-28 22:24:00,,0826.8,5.01,0.00,28.8,26.3,00.0,37.9,30.5,24.6,0001.6,0033.06,0019.32,0017.94
2021-08-28 22:25:00,,0826.9,4.98,0.00,28.8,26.8,00.0,37.9,30.6,24.9,0001.8,0033.26,0019.32,0017.94
2021-08-28 22:26:00,,0826.9,5.01,0.00,28.9,27.2,00.0,37.9,30.7,24.9,0002.0,0032.85,0019.25,0017.91
2021-08-28 22:27:00,,0826.9,5.00,0.00,28.9,27.6,00.0,37.9,30.8,24.8,0002.2,0033.05,0019.27,0017.89
2021-08-28 22:28:00,,0827.0,5.00,0.00,29.0,27.9,00.0,38.0,31.0,24.1,0002.2,0033.10,0019.31,0017.88
2021-08-28 22:29:00,,0827.0,5.00,0.00,29.1,28.0,00.0,38.0,31.0,24.0,0002.1,0032.77,0019.35,0017.88
2021-08-28 22:30:00,,0827.3,5.00,0.00,29.0,26.7,00.0,38.0,30.6,24.7,0001.9,0032.01,0019.40,0017.89
2021-08-28 22:31:00,,0827.3,5.01,0.00,28.9,25.5,00.0,37.9,30.2,24.9,0002.0,0031.12,0019.43,0017.89
2021-08-28 22:32:00,,0827.1,4.99,0.00,28.8,25.7,00.0,37.9,30.3,24.6,0002.2,0031.65,0019.49,0017.87
2021-08-28 22:33:00,,0826.9,5.00,0.00,28.7,26.2,00.0,37.9,30.4,24.7,0002.2,0031.91,0019.49,0017.83
2021-08-28 22:34:00,,0826.9,4.99,0.00,28.8,26.6,00.0,37.9,30.5,25.0,0002.3,0031.80,0019.50,0017.80
2021-08-28 22:35:00,,0826.7,5.01,0.00,28.8,27.1,00.0,37.9,30.6,24.4,0002.4,0030.24,0019.45,0017.75
2021-08-28 22:36:00,,0826.6,4.99,0.00,28.9,27.5,00.0,37.9,30.8,24.8,0002.1,0029.91,0019.28,0017.65
2021-08-28 22:37:00,,0826.5,5.01,0.00,28.9,27.8,00.0,37.9,30.9,24.9,0002.0,0030.93,0019.21,0017.59
2021-08-28 22:38:00,,0826.5,5.00,0.00,29.0,28.1,00.0,37.9,31.0,24.4,0002.0,0030.95,0019.14,0017.56
2021-08-28 22:39:00,,0826.5,4.99,0.00,29.1,28.3,00.0,38.0,31.1,24.6,0002.0,0031.39,0019.12,0017.56
2021-08-28 22:40:00,,0826.5,5.01,0.00,29.1,28.0,00.0,38.0,31.0,24.7,0002.0,0031.30,0019.06,0017.50
2021-08-28 22:41:00,,0826.5,5.00,0.00,29.0,26.3,00.0,38.0,30.5,24.6,0002.3,0030.80,0018.96,0017.44
2021-08-28 22:42:00,,0826.7,4.99,0.00,28.9,25.7,00.0,38.0,30.3,24.9,0002.4,0030.84,0018.97,0017.43
2021-08-28 22:43:00,,0826.7,5.00,0.00,28.8,26.0,00.0,38.0,30.4,24.8,0002.5,0029.95,0019.01,0017.48
2021-08-28 22:44:00,,0826.9,5.00,0.00,28.8,26.5,00.0,37.9,30.5,24.5,0002.4,0029.25,0019.02,0017.50
2021-08-28 22:45:00,,0826.8,5.01,0.00,28.9,27.0,00.0,37.9,30.7,25.0,0002.6,0029.35,0019.03,0017.50
2021-08-28 22:46:00,,0826.9,4.99,0.00,28.9,27.4,00.0,37.9,30.8,25.1,0002.6,0029.49,0019.02,0017.52
2021-08-28 22:47:00,,0827.0,5.00,0.00,29.0,27.7,00.0,38.0,30.9,25.2,0002.7,0030.93,0019.11,0017.57
2021-08-28 22:48:00,,0826.9,4.99,0.00,29.1,28.1,00.0,38.0,31.0,25.0,0002.7,0029.80,0019.16,0017.62
2021-08-28 22:49:00,,0826.8,5.00,0.00,29.1,27.9,00.0,38.0,31.0,24.9,0002.8,0029.28,0019.19,0017.65
2021-08-28 22:50:00,,0826.9,5.00,0.00,29.0,26.3,00.0,38.0,30.5,24.9,0002.8,0029.16,0019.14,0017.60
2021-08-28 22:51:00,,0826.9,5.01,0.00,28.9,25.6,00.0,38.0,30.3,24.8,0003.0,0029.12,0019.05,0017.55
2021-08-28 22:52:00,,0826.8,5.00,0.00,28.8,26.0,00.0,38.0,30.4,25.0,0002.8,0028.75,0018.99,0017.48
2021-08-28 22:53:00,,0826.8,4.99,0.00,28.8,26.4,00.0,37.9,30.5,25.0,0002.7,0028.73,0018.93,0017.42
2021-08-28 22:54:00,,0826.8,5.01,0.00,28.8,26.9,00.0,37.9,30.6,25.1,0003.0,0029.84,0018.77,0017.33
2021-08-28 22:55:00,,0826.8,4.98,0.00,28.9,27.3,00.0,37.9,30.7,25.1,0003.0,0029.92,0018.67,0017.27
2021-08-28 22:56:00,,0826.8,5.00,0.00,29.0,27.7,00.0,37.9,30.9,24.9,0002.8,0030.14,0018.60,0017.24
2021-08-28 22:57:00,,0826.8,5.01,0.00,29.0,28.0,00.0,38.0,31.0,24.6,0002.9,0030.27,0018.52,0017.17
2021-08-28 22:58:00,,0826.8,4.99,0.00,29.1,28.3,00.0,38.0,31.1,24.5,0002.9,0028.91,0018.42,0017.07
2021-08-28 22:59:00,,0826.8,5.01,0.00,29.1,27.4,00.0,38.0,30.8,24.6,0003.0,0028.46,0018.39,0017.01
